| time (UTC) | temp F | wind direction | speed MPH | gust MPH | rain 1hr in | rain 24hr in | rain mn in | humidity % | barometer mb |
| 20260507223017 | 58 | 258 | 1.0 | 7.0 | 0.00 | 0.09 | 0.02 | 45 | 1006.7 |
| 20260507222517 | 58 | 307 | 1.0 | 5.0 | 0.00 | 0.09 | 0.02 | 42 | 1006.6 |
| 20260507222014 | 58 | 355 | 0.0 | 5.0 | 0.00 | 0.10 | 0.02 | 41 | 1006.6 |
| 20260507221812 | 58 | 197 | 1.0 | 2.0 | 0.00 | 0.10 | 0.02 | 40 | 1006.6 |
| 20260507221307 | 58 | 100 | 1.0 | 7.0 | 0.00 | 0.10 | 0.02 | 42 | 1006.5 |
| 20260507220509 | 59 | 317 | 2.0 | 7.0 | 0.00 | 0.11 | 0.02 | 39 | 1006.5 |
| 20260507220007 | 59 | 278 | 2.0 | 6.0 | 0.00 | 0.12 | 0.02 | 40 | 1006.5 |
| 20260507215509 | 59 | 254 | 2.0 | 7.0 | 0.00 | 0.12 | 0.02 | 38 | 1006.4 |
| 20260507215007 | 60 | 89 | 2.0 | 7.0 | 0.00 | 0.13 | 0.02 | 38 | 1006.4 |
| 20260507214502 | 60 | 323 | 1.0 | 6.0 | 0.00 | 0.14 | 0.02 | 39 | 1006.5 |
| 20260507214256 | 60 | 286 | 1.0 | 6.0 | 0.00 | 0.14 | 0.02 | 39 | 1006.4 |
| 20260507213501 | 60 | 252 | 1.0 | 6.0 | 0.00 | 0.14 | 0.02 | 37 | 1006.3 |
| 20260507213000 | 60 | 138 | 1.0 | 4.0 | 0.00 | 0.14 | 0.02 | 43 | 1006.3 |
| 20260507212500 | 60 | 210 | 1.0 | 4.0 | 0.00 | 0.14 | 0.02 | 43 | 1006.3 |
| 20260507212003 | 60 | 260 | 1.0 | 4.0 | 0.00 | 0.14 | 0.02 | 37 | 1006.3 |
| 20260507211459 | 60 | 338 | 2.0 | 5.0 | 0.00 | 0.14 | 0.02 | 38 | 1006.4 |
| 20260507210955 | 61 | 223 | 2.0 | 6.0 | 0.00 | 0.15 | 0.02 | 38 | 1006.4 |
| 20260507210454 | 61 | 298 | 1.0 | 6.0 | 0.00 | 0.15 | 0.02 | 41 | 1006.3 |
| 20260507205953 | 61 | 259 | 1.0 | 5.0 | 0.00 | 0.16 | 0.02 | 37 | 1006.3 |
| 20260507205453 | 61 | 306 | 2.0 | 5.0 | 0.00 | 0.16 | 0.02 | 39 | 1006.3 |
| 20260507204951 | 61 | 187 | 2.0 | 8.0 | 0.00 | 0.16 | 0.02 | 40 | 1006.3 |
| 20260507204748 | 62 | 97 | 2.0 | 8.0 | 0.00 | 0.17 | 0.02 | 36 | 1006.2 |
| 20260507203951 | 62 | 71 | 1.0 | 4.0 | 0.00 | 0.17 | 0.02 | 36 | 1006.0 |
| 20260507203447 | 62 | 309 | 1.0 | 5.0 | 0.00 | 0.17 | 0.02 | 38 | 1006.0 |
| 20260507202945 | 61 | 288 | 2.0 | 8.0 | 0.00 | 0.18 | 0.02 | 35 | 1006.1 |
| 20260507202445 | 62 | 193 | 2.0 | 8.0 | 0.00 | 0.18 | 0.02 | 37 | 1006.0 |
| 20260507201945 | 62 | 83 | 1.0 | 6.0 | 0.00 | 0.19 | 0.02 | 36 | 1006.2 |
| 20260507201444 | 62 | 121 | 2.0 | 7.0 | 0.00 | 0.19 | 0.02 | 40 | 1006.1 |
| 20260507200945 | 62 | 187 | 2.0 | 7.0 | 0.00 | 0.19 | 0.02 | 36 | 1006.2 |
| 20260507200445 | 62 | 314 | 2.0 | 7.0 | 0.00 | 0.20 | 0.02 | 38 | 1006.1 |
| 20260507195937 | 62 | 221 | 2.0 | 7.0 | 0.00 | 0.20 | 0.02 | 35 | 1006.1 |
| 20260507195730 | 63 | 18 | 2.0 | 7.0 | 0.00 | 0.20 | 0.02 | 42 | 1006.2 |
| 20260507194939 | 62 | 51 | 2.0 | 7.0 | 0.00 | 0.20 | 0.02 | 38 | 1006.2 |
| 20260507194436 | 63 | 5 | 2.0 | 7.0 | 0.00 | 0.20 | 0.02 | 36 | 1006.4 |
| 20260507193935 | 63 | 95 | 2.0 | 5.0 | 0.00 | 0.20 | 0.02 | 36 | 1006.3 |
| 20260507193435 | 63 | 244 | 2.0 | 7.0 | 0.00 | 0.20 | 0.02 | 36 | 1006.4 |
| 20260507192935 | 64 | 180 | 2.0 | 7.0 | 0.00 | 0.20 | 0.02 | 39 | 1006.6 |
| 20260507192435 | 63 | 69 | 2.0 | 6.0 | 0.00 | 0.21 | 0.02 | 35 | 1006.4 |
| 20260507191933 | 62 | 257 | 2.0 | 7.0 | 0.00 | 0.21 | 0.02 | 42 | 1006.6 |
| 20260507191433 | 62 | 238 | 2.0 | 9.0 | 0.00 | 0.21 | 0.02 | 35 | 1006.6 |
| 20260507191228 | 62 | 316 | 2.0 | 9.0 | 0.00 | 0.22 | 0.02 | 36 | 1006.7 |
| 20260507190433 | 62 | 0 | 2.0 | 6.0 | 0.00 | 0.22 | 0.02 | 44 | 1006.9 |
| 20260507185931 | 62 | 62 | 2.0 | 5.0 | 0.00 | 0.23 | 0.02 | 41 | 1006.9 |
| 20260507185433 | 62 | 244 | 2.0 | 5.0 | 0.00 | 0.23 | 0.02 | 37 | 1006.8 |
| 20260507184931 | 62 | 261 | 2.0 | 7.0 | 0.00 | 0.23 | 0.02 | 40 | 1007.0 |
| 20260507184431 | 62 | 242 | 1.0 | 7.0 | 0.00 | 0.24 | 0.02 | 38 | 1007.0 |
| 20260507184224 | 62 | 231 | 1.0 | 5.0 | 0.00 | 0.24 | 0.02 | 39 | 1007.0 |
| 20260507183431 | 63 | 74 | 2.0 | 9.0 | 0.00 | 0.24 | 0.02 | 41 | 1007.0 |
| 20260507183223 | 63 | 242 | 2.0 | 10.0 | 0.00 | 0.25 | 0.02 | 47 | 1007.0 |
| 20260507182420 | 64 | 159 | 2.0 | 10.0 | 0.00 | 0.25 | 0.02 | 38 | 1007.0 |
| 20260507181914 | 64 | 286 | 2.0 | 8.0 | 0.00 | 0.25 | 0.02 | 38 | 1007.0 |
| 20260507181408 | 63 | 291 | 2.0 | 8.0 | 0.00 | 0.25 | 0.02 | 35 | 1007.1 |
| 20260507180903 | 63 | 316 | 2.0 | 9.0 | 0.00 | 0.25 | 0.02 | 36 | 1007.1 |
| 20260507180503 | 63 | 300 | 2.0 | 8.0 | 0.00 | 0.25 | 0.02 | 43 | 1007.1 |
| 20260507180443 | 63 | 270 | 2.0 | 9.0 | 0.00 | 0.25 | 0.02 | 40 | 1007.1 |
| 20260507175451 | 63 | 319 | 2.0 | 8.0 | 0.00 | 0.25 | 0.02 | 45 | 1006.9 |
| 20260507175432 | 63 | 149 | 2.0 | 8.0 | 0.00 | 0.25 | 0.02 | 41 | 1007.1 |
| 20260507174401 | 63 | 123 | 2.0 | 6.0 | 0.00 | 0.25 | 0.02 | 38 | 1006.9 |
| 20260507174154 | 63 | 248 | 2.0 | 10.0 | 0.00 | 0.25 | 0.02 | 42 | 1006.9 |
| 20260507173403 | 63 | 260 | 2.0 | 10.0 | 0.00 | 0.25 | 0.02 | 40 | 1007.0 |
| 20260507172903 | 63 | 205 | 2.0 | 8.0 | 0.00 | 0.25 | 0.02 | 43 | 1007.0 |
| 20260507172404 | 63 | 224 | 2.0 | 8.0 | 0.00 | 0.25 | 0.02 | 42 | 1007.1 |
| 20260507171904 | 63 | 206 | 2.0 | 9.0 | 0.00 | 0.25 | 0.02 | 41 | 1007.0 |
| 20260507171400 | 63 | 123 | 2.0 | 9.0 | 0.00 | 0.25 | 0.02 | 38 | 1007.0 |
| 20260507170903 | 63 | 248 | 2.0 | 9.0 | 0.00 | 0.25 | 0.02 | 49 | 1007.3 |
| 20260507170402 | 63 | 94 | 2.0 | 7.0 | 0.00 | 0.25 | 0.02 | 48 | 1007.1 |
| 20260507165901 | 63 | 71 | 2.0 | 8.0 | 0.00 | 0.25 | 0.02 | 43 | 1007.4 |
| 20260507165401 | 62 | 267 | 3.0 | 12.0 | 0.00 | 0.25 | 0.02 | 45 | 1007.5 |
| 20260507164902 | 62 | 219 | 3.0 | 12.0 | 0.00 | 0.25 | 0.02 | 40 | 1007.6 |
| 20260507164403 | 62 | 276 | 3.0 | 9.0 | 0.00 | 0.25 | 0.02 | 47 | 1007.6 |
| 20260507163857 | 62 | 269 | 2.0 | 7.0 | 0.00 | 0.25 | 0.02 | 40 | 1007.5 |
| 20260507163350 | 62 | 330 | 2.0 | 8.0 | 0.00 | 0.25 | 0.02 | 49 | 1007.6 |
| 20260507162845 | 63 | 185 | 2.0 | 9.0 | 0.00 | 0.25 | 0.02 | 48 | 1007.6 |
| 20260507162338 | 61 | 195 | 2.0 | 11.0 | 0.00 | 0.25 | 0.02 | 49 | 1007.6 |
| 20260507161833 | 61 | 236 | 2.0 | 11.0 | 0.00 | 0.25 | 0.02 | 54 | 1007.7 |
| 20260507161326 | 60 | 112 | 2.0 | 6.0 | 0.00 | 0.25 | 0.02 | 55 | 1007.8 |
| 20260507161117 | 61 | 209 | 2.0 | 7.0 | 0.00 | 0.25 | 0.02 | 56 | 1007.8 |
| 20260507160602 | 59 | 105 | 2.0 | 7.0 | 0.00 | 0.25 | 0.02 | 56 | 1007.8 |
| 20260507155812 | 58 | 246 | 2.0 | 9.0 | 0.00 | 0.25 | 0.02 | 58 | 1008.0 |
| 20260507155306 | 59 | 105 | 2.0 | 9.0 | 0.00 | 0.25 | 0.02 | 61 | 1008.0 |
| 20260507154803 | 60 | 242 | 2.0 | 9.0 | 0.00 | 0.25 | 0.02 | 58 | 1008.0 |
| 20260507154600 | 58 | 267 | 2.0 | 5.0 | 0.00 | 0.25 | 0.02 | 61 | 1008.1 |
| 20260507153803 | 59 | 230 | 2.0 | 8.0 | 0.00 | 0.25 | 0.02 | 60 | 1008.2 |
| 20260507153600 | 59 | 260 | 1.0 | 8.0 | 0.00 | 0.25 | 0.02 | 61 | 1008.1 |
| 20260507152803 | 58 | 287 | 1.0 | 7.0 | 0.00 | 0.25 | 0.02 | 67 | 1008.2 |
| 20260507152306 | 58 | 126 | 1.0 | 5.0 | 0.00 | 0.25 | 0.02 | 65 | 1008.3 |
| 20260507151803 | 58 | 178 | 1.0 | 5.0 | 0.00 | 0.25 | 0.02 | 59 | 1008.2 |
| 20260507151303 | 59 | 179 | 1.0 | 4.0 | 0.00 | 0.25 | 0.02 | 61 | 1008.3 |
| 20260507151102 | 57 | 124 | 1.0 | 4.0 | 0.00 | 0.25 | 0.02 | 65 | 1008.5 |
| 20260507150304 | 56 | 245 | 1.0 | 4.0 | 0.00 | 0.25 | 0.02 | 65 | 1008.6 |
| 20260507145803 | 57 | 198 | 1.0 | 7.0 | 0.00 | 0.25 | 0.02 | 62 | 1008.7 |
| 20260507145307 | 58 | 298 | 2.0 | 8.0 | 0.00 | 0.25 | 0.02 | 63 | 1008.7 |
| 20260507144804 | 58 | 241 | 2.0 | 8.0 | 0.00 | 0.25 | 0.02 | 63 | 1008.5 |
| 20260507144303 | 58 | 273 | 2.0 | 5.0 | 0.00 | 0.25 | 0.02 | 59 | 1008.7 |
| 20260507143804 | 59 | 273 | 2.0 | 5.0 | 0.00 | 0.25 | 0.02 | 63 | 1008.5 |
| 20260507143305 | 59 | 139 | 1.0 | 3.0 | 0.00 | 0.25 | 0.02 | 62 | 1008.4 |
| 20260507142804 | 59 | 221 | 2.0 | 6.0 | 0.00 | 0.25 | 0.02 | 63 | 1008.5 |
| 20260507142301 | 58 | 290 | 2.0 | 6.0 | 0.00 | 0.25 | 0.02 | 58 | 1008.4 |
| 20260507142102 | 58 | 0 | 2.0 | 7.0 | 0.00 | 0.25 | 0.02 | 60 | 1008.6 |
| 20260507141300 | 58 | 240 | 2.0 | 7.0 | 0.00 | 0.25 | 0.02 | 63 | 1008.5 |
| 20260507140801 | 57 | 53 | 2.0 | 6.0 | 0.00 | 0.25 | 0.02 | 63 | 1008.5 |
| 20260507140606 | 57 | 252 | 2.0 | 7.0 | 0.00 | 0.25 | 0.02 | 63 | 1008.5 |
| 20260507135800 | 56 | 263 | 2.0 | 7.0 | 0.00 | 0.25 | 0.02 | 65 | 1008.4 |
| 20260507135558 | 56 | 119 | 2.0 | 7.0 | 0.00 | 0.25 | 0.02 | 64 | 1008.4 |
| 20260507134801 | 56 | 284 | 2.0 | 6.0 | 0.00 | 0.25 | 0.02 | 66 | 1008.5 |
| 20260507134301 | 56 | 131 | 2.0 | 6.0 | 0.00 | 0.25 | 0.02 | 66 | 1008.4 |
| 20260507133803 | 56 | 223 | 2.0 | 6.0 | 0.00 | 0.25 | 0.02 | 66 | 1008.5 |
| 20260507133303 | 55 | 271 | 1.0 | 6.0 | 0.00 | 0.25 | 0.02 | 70 | 1008.6 |
| 20260507132801 | 55 | 313 | 1.0 | 6.0 | 0.00 | 0.25 | 0.02 | 68 | 1008.7 |
| 20260507132301 | 55 | 243 | 1.0 | 4.0 | 0.00 | 0.25 | 0.02 | 68 | 1009.0 |
| 20260507131802 | 55 | 309 | 1.0 | 4.0 | 0.00 | 0.25 | 0.02 | 66 | 1008.9 |
| 20260507131300 | 54 | 267 | 1.0 | 4.0 | 0.00 | 0.25 | 0.02 | 67 | 1009.0 |
| 20260507130756 | 54 | 51 | 1.0 | 4.0 | 0.00 | 0.25 | 0.02 | 68 | 1008.9 |
| 20260507130255 | 53 | 239 | 1.0 | 7.0 | 0.00 | 0.25 | 0.02 | 73 | 1008.9 |
| 20260507125757 | 53 | 337 | 1.0 | 7.0 | 0.00 | 0.25 | 0.02 | 70 | 1009.0 |
| 20260507125256 | 53 | 296 | 1.0 | 5.0 | 0.00 | 0.25 | 0.02 | 72 | 1009.1 |
| 20260507124754 | 52 | 255 | 2.0 | 4.0 | 0.01 | 0.25 | 0.02 | 73 | 1009.0 |
| 20260507124255 | 52 | 263 | 1.0 | 4.0 | 0.01 | 0.25 | 0.02 | 75 | 1009.0 |
| 20260507123754 | 52 | 259 | 1.0 | 5.0 | 0.01 | 0.25 | 0.02 | 74 | 1009.0 |
| 20260507123252 | 51 | 302 | 1.0 | 5.0 | 0.01 | 0.25 | 0.02 | 77 | 1009.1 |
| 20260507123053 | 51 | 281 | 1.0 | 4.0 | 0.01 | 0.25 | 0.02 | 78 | 1009.1 |
| 20260507122555 | 51 | 232 | 1.0 | 3.0 | 0.01 | 0.25 | 0.02 | 81 | 1009.2 |
| 20260507121753 | 49 | 277 | 1.0 | 4.0 | 0.01 | 0.25 | 0.02 | 84 | 1009.2 |
| 20260507121251 | 49 | 290 | 1.0 | 4.0 | 0.01 | 0.25 | 0.02 | 85 | 1009.2 |
| 20260507120750 | 49 | 30 | 1.0 | 4.0 | 0.01 | 0.25 | 0.02 | 85 | 1009.1 |
| 20260507120252 | 49 | 248 | 1.0 | 4.0 | 0.01 | 0.25 | 0.02 | 85 | 1009.2 |
| 20260507115750 | 48 | 181 | 1.0 | 4.0 | 0.01 | 0.25 | 0.02 | 85 | 1009.1 |
| 20260507115250 | 48 | 259 | 1.0 | 4.0 | 0.01 | 0.25 | 0.02 | 86 | 1009.2 |
| 20260507114752 | 49 | 254 | 0.0 | 4.0 | 0.00 | 0.24 | 0.01 | 87 | 1009.1 |
| 20260507114253 | 49 | 257 | 0.0 | 4.0 | 0.00 | 0.24 | 0.01 | 88 | 1009.1 |
| 20260507113752 | 49 | 257 | 1.0 | 4.0 | 0.00 | 0.24 | 0.01 | 88 | 1009.0 |
| 20260507113253 | 48 | 343 | 0.0 | 3.0 | 0.00 | 0.24 | 0.01 | 88 | 1008.8 |
| 20260507112748 | 48 | 330 | 1.0 | 3.0 | 0.00 | 0.24 | 0.01 | 88 | 1008.8 |
| 20260507112249 | 47 | 254 | 0.0 | 3.0 | 0.00 | 0.24 | 0.01 | 91 | 1008.9 |
| 20260507111749 | 46 | 253 | 0.0 | 2.0 | 0.00 | 0.24 | 0.01 | 91 | 1008.8 |
| 20260507111248 | 46 | 253 | 0.0 | 2.0 | 0.00 | 0.24 | 0.01 | 91 | 1009.0 |
| 20260507111035 | 46 | 253 | 0.0 | 3.0 | 0.00 | 0.24 | 0.01 | 92 | 1009.0 |
| 20260507110248 | 46 | 253 | 0.0 | 3.0 | 0.00 | 0.24 | 0.01 | 92 | 1008.9 |
| 20260507105746 | 46 | 253 | 0.0 | 2.0 | 0.00 | 0.24 | 0.01 | 92 | 1008.7 |
| 20260507105248 | 46 | 253 | 0.0 | 3.0 | 0.00 | 0.24 | 0.01 | 92 | 1008.6 |
| 20260507104748 | 46 | 253 | 0.0 | 3.0 | 0.00 | 0.24 | 0.01 | 92 | 1008.4 |
| 20260507104621 | 46 | 275 | 0.0 | 2.0 | 0.00 | 0.24 | 0.01 | 92 | 1008.4 |
| 20260507104316 | 46 | 275 | 0.0 | 2.0 | 0.00 | 0.24 | 0.01 | 92 | 1008.6 |
| 20260507103243 | 46 | 248 | 0.0 | 2.0 | 0.00 | 0.24 | 0.01 | 92 | 1008.5 |
| 20260507103037 | 46 | 244 | 1.0 | 3.0 | 0.00 | 0.24 | 0.01 | 92 | 1008.3 |
| 20260507102244 | 46 | 244 | 1.0 | 3.0 | 0.00 | 0.24 | 0.01 | 92 | 1008.2 |
| 20260507101744 | 46 | 236 | 0.0 | 2.0 | 0.00 | 0.24 | 0.01 | 92 | 1008.5 |
| 20260507101242 | 47 | 234 | 0.0 | 2.0 | 0.00 | 0.24 | 0.01 | 92 | 1008.2 |
| 20260507101030 | 47 | 254 | 0.0 | 2.0 | 0.00 | 0.24 | 0.01 | 92 | 1008.3 |
| 20260507100535 | 47 | 254 | 0.0 | 5.0 | 0.00 | 0.24 | 0.01 | 92 | 1008.3 |
| 20260507095739 | 47 | 254 | 0.0 | 5.0 | 0.00 | 0.24 | 0.01 | 92 | 1008.4 |
| 20260507095238 | 47 | 229 | 0.0 | 3.0 | 0.00 | 0.24 | 0.01 | 92 | 1008.7 |
| 20260507094740 | 47 | 261 | 0.0 | 3.0 | 0.00 | 0.24 | 0.01 | 92 | 1008.5 |
| 20260507094237 | 47 | 355 | 0.0 | 3.0 | 0.00 | 0.24 | 0.01 | 92 | 1008.6 |
| 20260507093736 | 47 | 298 | 0.0 | 3.0 | 0.00 | 0.24 | 0.01 | 92 | 1008.5 |
| 20260507093236 | 47 | 275 | 0.0 | 2.0 | 0.00 | 0.24 | 0.01 | 92 | 1008.4 |
| 20260507092739 | 47 | 275 | 1.0 | 6.0 | 0.00 | 0.24 | 0.01 | 91 | 1008.4 |
| 20260507092236 | 47 | 286 | 1.0 | 6.0 | 0.00 | 0.24 | 0.01 | 91 | 1008.4 |
| 20260507091736 | 47 | 281 | 0.0 | 3.0 | 0.00 | 0.24 | 0.01 | 91 | 1008.5 |
| 20260507091237 | 47 | 273 | 0.0 | 1.0 | 0.00 | 0.24 | 0.01 | 92 | 1008.5 |
| 20260507090734 | 47 | 273 | 0.0 | 2.0 | 0.01 | 0.24 | 0.01 | 91 | 1008.6 |
| 20260507090519 | 48 | 273 | 0.0 | 2.0 | 0.01 | 0.24 | 0.01 | 91 | 1008.2 |
| 20260507085732 | 48 | 273 | 0.0 | 1.0 | 0.01 | 0.24 | 0.01 | 91 | 1008.1 |
| 20260507085231 | 48 | 273 | 0.0 | 1.0 | 0.01 | 0.24 | 0.01 | 91 | 1008.5 |
| 20260507084731 | 48 | 273 | 0.0 | 1.0 | 0.01 | 0.24 | 0.01 | 91 | 1008.4 |
| 20260507084230 | 48 | 273 | 0.0 | 1.0 | 0.01 | 0.24 | 0.01 | 90 | 1008.2 |
| 20260507084022 | 48 | 273 | 0.0 | 1.0 | 0.01 | 0.24 | 0.01 | 90 | 1007.9 |
| 20260507083227 | 48 | 273 | 0.0 | 2.0 | 0.01 | 0.24 | 0.01 | 90 | 1007.9 |
| 20260507083018 | 48 | 273 | 0.0 | 2.0 | 0.01 | 0.24 | 0.01 | 90 | 1008.0 |
| 20260507082226 | 48 | 273 | 0.0 | 2.0 | 0.01 | 0.24 | 0.01 | 90 | 1008.1 |
| 20260507082020 | 48 | 273 | 0.0 | 1.0 | 0.01 | 0.24 | 0.01 | 89 | 1008.1 |
| 20260507081225 | 48 | 273 | 0.0 | 2.0 | 0.01 | 0.24 | 0.01 | 89 | 1007.8 |
| 20260507080722 | 48 | 273 | 1.0 | 2.0 | 0.00 | 0.23 | 0.00 | 89 | 1007.7 |
| 20260507080219 | 49 | 254 | 1.0 | 4.0 | 0.00 | 0.23 | 0.00 | 89 | 1007.9 |
| 20260507075717 | 49 | 239 | 0.0 | 4.0 | 0.00 | 0.23 | 0.00 | 89 | 1008.1 |
| 20260507075216 | 49 | 236 | 0.0 | 2.0 | 0.00 | 0.23 | 0.00 | 89 | 1008.3 |
| 20260507074715 | 49 | 236 | 1.0 | 4.0 | 0.00 | 0.23 | 0.00 | 89 | 1008.2 |
| 20260507074212 | 49 | 236 | 1.0 | 4.0 | 0.00 | 0.23 | 0.00 | 89 | 1008.0 |
| 20260507073710 | 49 | 235 | 1.0 | 4.0 | 0.00 | 0.23 | 0.00 | 89 | 1007.9 |
| 20260507073601 | 49 | 241 | 0.0 | 4.0 | 0.00 | 0.23 | 0.00 | 89 | 1007.7 |
| 20260507073246 | 49 | 244 | 1.0 | 4.0 | 0.00 | 0.23 | 0.00 | 89 | 1007.8 |
| 20260507072459 | 49 | 302 | 0.0 | 3.0 | 0.00 | 0.23 | 0.00 | 89 | 1007.8 |
| 20260507071706 | 49 | 302 | 1.0 | 3.0 | 0.00 | 0.23 | 0.00 | 89 | 1007.7 |
| 20260507071455 | 49 | 252 | 1.0 | 4.0 | 0.00 | 0.23 | 0.00 | 89 | 1007.8 |
| 20260507070705 | 49 | 238 | 1.0 | 6.0 | 0.00 | 0.23 | 0.00 | 89 | 1007.8 |
| 20260507070202 | 49 | 246 | 1.0 | 6.0 | 0.00 | 0.23 | 0.00 | 90 | 1008.0 |
| 20260507065702 | 49 | 304 | 1.0 | 6.0 | 0.00 | 0.23 | 0.00 | 90 | 1007.8 |
| 20260507065204 | 49 | 333 | 2.0 | 6.0 | 0.00 | 0.23 | 0.00 | 90 | 1007.6 |
| 20260507064700 | 49 | 306 | 2.0 | 7.0 | 0.00 | 0.23 | 0.00 | 90 | 1007.5 |
| 20260507064448 | 50 | 261 | 1.0 | 7.0 | 0.00 | 0.23 | 0.00 | 91 | 1007.7 |
| 20260507063648 | 50 | 246 | 1.0 | 6.0 | 0.00 | 0.23 | 0.00 | 91 | 1007.7 |
| 20260507063142 | 50 | 257 | 1.0 | 4.0 | 0.00 | 0.23 | 0.00 | 91 | 1007.5 |
| 20260507062637 | 50 | 232 | 1.0 | 3.0 | 0.00 | 0.23 | 0.00 | 91 | 1007.4 |
| 20260507062133 | 50 | 78 | 0.0 | 3.0 | 0.00 | 0.23 | 0.00 | 91 | 1007.4 |
| 20260507061631 | 51 | 78 | 0.0 | 2.0 | 0.00 | 0.23 | 0.00 | 91 | 1007.3 |
| 20260507061133 | 51 | 78 | 0.0 | 3.0 | 0.00 | 0.23 | 0.00 | 91 | 1007.2 |
| 20260507060632 | 51 | 78 | 1.0 | 3.0 | 0.00 | 0.23 | 0.00 | 91 | 1007.5 |
| 20260507060134 | 51 | 237 | 1.0 | 3.0 | 0.00 | 0.23 | 0.00 | 91 | 1007.7 |
| 20260507055635 | 51 | 20 | 0.0 | 3.0 | 0.00 | 0.23 | 0.00 | 92 | 1007.7 |
| 20260507055131 | 51 | 264 | 0.0 | 4.0 | 0.00 | 0.23 | 0.00 | 92 | 1007.7 |
| 20260507054631 | 51 | 258 | 0.0 | 4.0 | 0.00 | 0.23 | 0.00 | 92 | 1007.7 |
| 20260507054423 | 52 | 272 | 0.0 | 2.0 | 0.00 | 0.23 | 0.00 | 92 | 1007.9 |
| 20260507053631 | 52 | 272 | 0.0 | 1.0 | 0.00 | 0.23 | 0.00 | 92 | 1007.9 |
| 20260507053131 | 52 | 272 | 0.0 | 2.0 | 0.00 | 0.23 | 0.00 | 92 | 1007.8 |
| 20260507052631 | 52 | 272 | 0.0 | 2.0 | 0.00 | 0.23 | 0.00 | 92 | 1007.7 |
| 20260507052132 | 52 | 272 | 0.0 | 3.0 | 0.00 | 0.23 | 0.00 | 92 | 1007.7 |
| 20260507051631 | 52 | 272 | 0.0 | 3.0 | 0.00 | 0.23 | 0.00 | 92 | 1007.9 |
| 20260507051130 | 52 | 265 | 0.0 | 2.0 | 0.00 | 0.23 | 0.00 | 92 | 1007.7 |
| 20260507050629 | 52 | 28 | 0.0 | 1.0 | 0.00 | 0.23 | 0.00 | 92 | 1007.6 |
| 20260507050130 | 53 | 28 | 0.0 | 4.0 | 0.00 | 0.23 | 0.00 | 92 | 1007.5 |
| 20260507045629 | 53 | 28 | 1.0 | 4.0 | 0.00 | 0.23 | 0.00 | 92 | 1007.3 |
| 20260507045124 | 53 | 260 | 0.0 | 2.0 | 0.00 | 0.23 | 0.00 | 92 | 1007.6 |
| 20260507044617 | 53 | 260 | 0.0 | 3.0 | 0.00 | 0.23 | 0.00 | 92 | 1007.6 |
| 20260507044111 | 53 | 260 | 0.0 | 3.0 | 0.00 | 0.23 | 0.00 | 92 | 1007.7 |
| 20260507043610 | 53 | 237 | 0.0 | 1.0 | 0.00 | 0.23 | 0.00 | 92 | 1007.6 |
| 20260507043108 | 53 | 237 | 0.0 | 2.0 | 0.00 | 0.23 | 0.00 | 92 | 1007.7 |
| 20260507042608 | 54 | 237 | 0.0 | 2.0 | 0.00 | 0.23 | 0.00 | 92 | 1007.7 |
| 20260507042356 | 54 | 237 | 0.0 | 1.0 | 0.00 | 0.23 | 0.00 | 92 | 1007.8 |
| 20260507041602 | 54 | 237 | 0.0 | 4.0 | 0.00 | 0.23 | 0.00 | 92 | 1007.9 |
| 20260507041102 | 54 | 232 | 1.0 | 4.0 | 0.00 | 0.23 | 0.00 | 92 | 1007.9 |
| 20260507040602 | 54 | 101 | 1.0 | 4.0 | 0.01 | 0.23 | 0.00 | 92 | 1007.7 |
| 20260507035604 | 55 | 255 | 0.0 | 3.0 | 0.01 | 0.23 | 0.23 | 92 | 1007.4 |
| 20260507035104 | 55 | 205 | 0.0 | 4.0 | 0.01 | 0.23 | 0.23 | 92 | 1007.2 |
| 20260507034603 | 56 | 205 | 1.0 | 4.0 | 0.01 | 0.23 | 0.23 | 92 | 1007.2 |
| 20260507034102 | 56 | 205 | 1.0 | 5.0 | 0.01 | 0.23 | 0.23 | 92 | 1007.1 |
| 20260507033600 | 56 | 298 | 1.0 | 5.0 | 0.01 | 0.23 | 0.23 | 93 | 1007.0 |
| 20260507033103 | 57 | 171 | 1.0 | 3.0 | 0.01 | 0.23 | 0.23 | 93 | 1007.0 |
| 20260507032604 | 57 | 192 | 1.0 | 3.0 | 0.01 | 0.23 | 0.23 | 93 | 1006.9 |
| 20260507032101 | 57 | 294 | 1.0 | 8.0 | 0.01 | 0.23 | 0.23 | 93 | 1006.8 |
| 20260507031601 | 58 | 274 | 2.0 | 8.0 | 0.01 | 0.23 | 0.23 | 93 | 1006.9 |
| 20260507031103 | 58 | 275 | 1.0 | 6.0 | 0.01 | 0.23 | 0.23 | 94 | 1007.0 |
| 20260507030600 | 59 | 271 | 1.0 | 6.0 | 0.00 | 0.22 | 0.22 | 94 | 1007.0 |
| 20260507030053 | 59 | 264 | 1.0 | 6.0 | 0.00 | 0.22 | 0.22 | 94 | 1006.6 |
| 20260507025547 | 59 | 53 | 1.0 | 6.0 | 0.00 | 0.22 | 0.22 | 94 | 1006.5 |
| 20260507025042 | 59 | 200 | 1.0 | 3.0 | 0.00 | 0.22 | 0.22 | 94 | 1006.5 |
| 20260507024834 | 59 | 109 | 0.0 | 3.0 | 0.00 | 0.22 | 0.22 | 94 | 1006.5 |
| 20260507024038 | 59 | 109 | 1.0 | 3.0 | 0.00 | 0.22 | 0.22 | 94 | 1006.4 |
| 20260507023913 | 59 | 132 | 0.0 | 3.0 | 0.00 | 0.22 | 0.22 | 94 | 1006.3 |
| 20260507023907 | 59 | 132 | 1.0 | 3.0 | 0.00 | 0.22 | 0.22 | 94 | 1006.3 |
| 20260507022535 | 59 | 268 | 0.0 | 3.0 | 0.00 | 0.22 | 0.22 | 94 | 1006.2 |
| 20260507022035 | 59 | 268 | 1.0 | 3.0 | 0.00 | 0.22 | 0.22 | 94 | 1006.1 |
| 20260507021532 | 59 | 265 | 0.0 | 3.0 | 0.00 | 0.22 | 0.22 | 94 | 1006.2 |
| 20260507021326 | 59 | 265 | 1.0 | 3.0 | 0.00 | 0.22 | 0.22 | 94 | 1006.2 |
| 20260507020826 | 59 | 267 | 1.0 | 5.0 | 0.00 | 0.22 | 0.22 | 94 | 1006.1 |
| 20260507020031 | 59 | 207 | 1.0 | 5.0 | 0.00 | 0.22 | 0.22 | 94 | 1006.2 |
| 20260507015531 | 59 | 241 | 1.0 | 7.0 | 0.00 | 0.22 | 0.22 | 94 | 1006.3 |
| 20260507015031 | 59 | 252 | 1.0 | 7.0 | 0.00 | 0.22 | 0.22 | 94 | 1006.3 |
| 20260507014530 | 59 | 119 | 1.0 | 6.0 | 0.00 | 0.22 | 0.22 | 94 | 1006.3 |
| 20260507014323 | 59 | 174 | 1.0 | 6.0 | 0.00 | 0.22 | 0.22 | 94 | 1006.3 |
| 20260507013530 | 59 | 267 | 1.0 | 6.0 | 0.00 | 0.22 | 0.22 | 94 | 1006.4 |
| 20260507013030 | 59 | 286 | 1.0 | 6.0 | 0.00 | 0.22 | 0.22 | 94 | 1006.3 |
| 20260507012818 | 59 | 126 | 1.0 | 3.0 | 0.00 | 0.22 | 0.22 | 94 | 1006.4 |
| 20260507012030 | 59 | 163 | 1.0 | 4.0 | 0.00 | 0.22 | 0.22 | 94 | 1006.4 |
| 20260507011530 | 59 | 157 | 1.0 | 4.0 | 0.00 | 0.22 | 0.22 | 94 | 1006.4 |
| 20260507011029 | 59 | 126 | 1.0 | 4.0 | 0.00 | 0.22 | 0.22 | 94 | 1006.4 |
| 20260507010525 | 59 | 135 | 1.0 | 4.0 | 0.00 | 0.22 | 0.22 | 94 | 1006.4 |
| 20260507010043 | 59 | 140 | 1.0 | 3.0 | 0.00 | 0.22 | 0.22 | 94 | 1006.4 |
| 20260507005524 | 59 | 112 | 1.0 | 6.0 | 0.00 | 0.22 | 0.22 | 94 | 1006.6 |
| 20260507005022 | 59 | 111 | 1.0 | 6.0 | 0.00 | 0.22 | 0.22 | 94 | 1006.4 |
| 20260507004521 | 59 | 80 | 1.0 | 5.0 | 0.00 | 0.22 | 0.22 | 94 | 1006.4 |
| 20260507004309 | 59 | 111 | 1.0 | 5.0 | 0.01 | 0.22 | 0.22 | 94 | 1006.2 |
| 20260507003521 | 59 | 243 | 1.0 | 5.0 | 0.01 | 0.22 | 0.22 | 94 | 1006.2 |
| 20260507003310 | 59 | 203 | 1.0 | 4.0 | 0.01 | 0.22 | 0.22 | 94 | 1006.2 |
| 20260507002519 | 59 | 159 | 2.0 | 5.0 | 0.01 | 0.22 | 0.22 | 94 | 1006.3 |
| 20260507002018 | 59 | 130 | 2.0 | 12.0 | 0.02 | 0.22 | 0.22 | 94 | 1006.2 |
| 20260507001520 | 59 | 216 | 2.0 | 12.0 | 0.03 | 0.22 | 0.22 | 94 | 1006.2 |
| 20260507001016 | 59 | 184 | 1.0 | 4.0 | 0.04 | 0.22 | 0.22 | 94 | 1006.2 |
| 20260507000514 | 59 | 137 | 1.0 | 3.0 | 0.04 | 0.22 | 0.22 | 94 | 1006.3 |
| 20260507000315 | 59 | 204 | 1.0 | 4.0 | 0.05 | 0.22 | 0.22 | 94 | 1006.3 |
| 20260506235515 | 59 | 109 | 1.0 | 4.0 | 0.05 | 0.22 | 0.22 | 94 | 1006.2 |
| 20260506235015 | 59 | 184 | 1.0 | 4.0 | 0.06 | 0.22 | 0.22 | 94 | 1006.1 |
| 20260506234513 | 59 | 198 | 1.0 | 4.0 | 0.06 | 0.22 | 0.21 | 94 | 1006.1 |
| 20260506234010 | 60 | 53 | 1.0 | 4.0 | 0.05 | 0.21 | 0.21 | 94 | 1006.2 |
| 20260506233510 | 60 | 212 | 1.0 | 5.0 | 0.05 | 0.21 | 0.21 | 94 | 1006.1 |
| 20260506233010 | 60 | 100 | 1.0 | 5.0 | 0.05 | 0.21 | 0.21 | 93 | 1006.1 |
| 20260506232509 | 60 | 185 | 1.0 | 3.0 | 0.05 | 0.21 | 0.20 | 93 | 1006.0 |
| 20260506232307 | 60 | 176 | 1.0 | 3.0 | 0.05 | 0.20 | 0.19 | 93 | 1006.2 |
| 20260506231510 | 60 | 217 | 1.0 | 3.0 | 0.04 | 0.19 | 0.19 | 93 | 1006.2 |
| 20260506231010 | 60 | 154 | 1.0 | 4.0 | 0.03 | 0.18 | 0.18 | 93 | 1006.3 |
| 20260506230511 | 60 | 196 | 1.0 | 9.0 | 0.04 | 0.18 | 0.17 | 93 | 1006.4 |
| 20260506230009 | 60 | 197 | 1.0 | 9.0 | 0.04 | 0.17 | 0.17 | 93 | 1006.5 |
| 20260506225508 | 60 | 186 | 1.0 | 4.0 | 0.04 | 0.17 | 0.17 | 93 | 1006.4 |
| 20260506225009 | 60 | 159 | 1.0 | 4.0 | 0.04 | 0.16 | 0.16 | 93 | 1006.4 |
| 20260506224507 | 60 | 191 | 1.0 | 3.0 | 0.05 | 0.16 | 0.16 | 93 | 1006.4 |
| 20260506224006 | 60 | 229 | 1.0 | 3.0 | 0.05 | 0.16 | 0.16 | 93 | 1006.5 |